Time,TemperatureF,DewpointF,PressureIn,WindDirection,WindDirectionDegrees,WindSpeedMPH,WindSpeedGustMPH,Humidity,HourlyPrecipIn,Conditions,Clouds,dailyrainin,SolarRadiationWatts/m^2,SoftwareType,DateUTC
2013-03-07 00:02:00,42.0,30.0,-100.00,SSE,155,7.0,11.0,61,0.00,,,0.30,3.000000,,2013-03-07 08:02:00,
2013-03-07 00:11:00,42.0,30.0,-100.00,SSE,155,7.0,11.0,61,0.00,,,0.30,3.000000,,2013-03-07 08:11:00,
2013-03-07 00:22:00,42.0,30.0,-100.00,SSE,155,7.0,11.0,61,0.00,,,0.30,3.000000,,2013-03-07 08:22:00,
2013-03-07 00:32:00,41.0,30.0,-100.00,SSE,156,8.0,11.0,64,0.00,,,0.28,3.000000,,2013-03-07 08:32:00,
2013-03-07 00:54:00,41.0,30.0,-100.00,SSE,156,8.0,11.0,64,0.00,,,0.28,3.000000,,2013-03-07 08:54:00,
2013-03-07 01:02:00,41.0,30.0,-100.00,SSE,156,8.0,11.0,64,0.00,,,0.28,3.000000,,2013-03-07 09:02:00,
2013-03-07 01:12:00,41.0,30.0,-100.00,SSE,156,8.0,11.0,64,0.00,,,0.28,3.000000,,2013-03-07 09:12:00,
2013-03-07 01:22:00,41.0,30.0,-100.00,SSE,156,8.0,11.0,64,0.00,,,0.28,3.000000,,2013-03-07 09:22:00,
2013-03-07 01:32:00,41.0,31.0,-100.00,SSE,168,9.0,12.0,67,0.00,,,0.22,3.000000,,2013-03-07 09:32:00,
2013-03-07 01:53:00,41.0,31.0,-100.00,SSE,168,9.0,12.0,67,0.00,,,0.22,3.000000,,2013-03-07 09:53:00,
2013-03-07 02:02:00,41.0,31.0,-100.00,SSE,168,9.0,12.0,67,0.00,,,0.22,3.000000,,2013-03-07 10:02:00,
2013-03-07 02:12:00,41.0,31.0,-100.00,SSE,168,9.0,12.0,67,0.00,,,0.22,3.000000,,2013-03-07 10:12:00,
2013-03-07 02:22:00,41.0,31.0,-100.00,SSE,168,9.0,12.0,67,0.00,,,0.22,3.000000,,2013-03-07 10:22:00,
2013-03-07 02:32:00,40.0,33.0,-100.00,SSE,157,9.0,13.0,75,0.00,,,0.09,3.000000,,2013-03-07 10:32:00,
2013-03-07 02:53:00,40.0,33.0,-100.00,SSE,157,9.0,13.0,75,0.00,,,0.09,3.000000,,2013-03-07 10:53:00,
2013-03-07 03:02:00,40.0,33.0,-100.00,SSE,157,9.0,13.0,75,0.00,,,0.09,3.000000,,2013-03-07 11:02:00,
2013-03-07 03:11:00,40.0,33.0,-100.00,SSE,157,9.0,13.0,75,0.00,,,0.09,3.000000,,2013-03-07 11:11:00,
2013-03-07 03:22:00,40.0,33.0,-100.00,SSE,157,9.0,13.0,75,0.00,,,0.09,3.000000,,2013-03-07 11:22:00,
2013-03-07 03:32:00,40.0,32.0,-100.00,SSE,166,8.0,12.0,73,0.00,,,0.04,3.000000,,2013-03-07 11:32:00,
2013-03-07 03:54:00,40.0,32.0,-100.00,SSE,166,8.0,12.0,73,0.00,,,0.04,3.000000,,2013-03-07 11:54:00,
2013-03-07 04:02:00,40.0,32.0,-100.00,SSE,166,8.0,12.0,73,0.00,,,0.04,3.000000,,2013-03-07 12:02:00,
2013-03-07 04:22:00,40.0,32.0,-100.00,SSE,166,8.0,12.0,73,0.00,,,0.04,3.000000,,2013-03-07 12:22:00,
2013-03-07 04:32:00,41.0,31.0,-100.00,SE,146,4.0,10.0,66,0.00,,,0.02,3.000000,,2013-03-07 12:32:00,
2013-03-07 04:52:00,41.0,31.0,-100.00,SE,146,4.0,10.0,66,0.00,,,0.02,3.000000,,2013-03-07 12:52:00,
2013-03-07 05:02:00,41.0,31.0,-100.00,SE,146,4.0,10.0,66,0.00,,,0.02,3.000000,,2013-03-07 13:02:00,
2013-03-07 05:12:00,41.0,31.0,-100.00,SE,146,4.0,10.0,66,0.00,,,0.02,3.000000,,2013-03-07 13:12:00,
2013-03-07 05:22:00,41.0,31.0,-100.00,SE,146,4.0,10.0,66,0.00,,,0.02,3.000000,,2013-03-07 13:22:00,
2013-03-07 05:32:00,39.0,30.0,-100.00,East,96,4.0,7.0,69,0.00,,,0.00,3.000000,,2013-03-07 13:32:00,
2013-03-07 05:53:00,39.0,30.0,-100.00,East,96,4.0,7.0,69,0.00,,,0.00,3.000000,,2013-03-07 13:53:00,
2013-03-07 06:01:00,39.0,30.0,-100.00,East,96,4.0,7.0,69,0.00,,,0.00,3.000000,,2013-03-07 14:01:00,
2013-03-07 06:11:00,39.0,30.0,-100.00,East,96,4.0,7.0,69,0.00,,,0.00,3.000000,,2013-03-07 14:11:00,
2013-03-07 06:22:00,39.0,30.0,-100.00,East,96,4.0,7.0,69,0.00,,,0.00,3.000000,,2013-03-07 14:22:00,
2013-03-07 06:32:00,39.0,29.0,-100.00,ESE,109,1.0,9.0,66,0.00,,,0.00,3.000000,,2013-03-07 14:32:00,
2013-03-07 06:53:00,39.0,29.0,-100.00,ESE,109,1.0,9.0,66,0.00,,,0.00,3.000000,,2013-03-07 14:53:00,
2013-03-07 07:02:00,39.0,29.0,-100.00,ESE,109,1.0,9.0,66,0.00,,,0.00,3.000000,,2013-03-07 15:02:00,
2013-03-07 07:12:00,39.0,29.0,-100.00,ESE,109,1.0,9.0,66,0.00,,,0.00,3.000000,,2013-03-07 15:12:00,
2013-03-07 07:22:00,39.0,29.0,-100.00,ESE,109,1.0,9.0,66,0.00,,,0.00,3.000000,,2013-03-07 15:22:00,
2013-03-07 07:32:00,40.0,31.0,-100.00,SSE,163,4.0,9.0,71,0.00,,,0.00,34.000000,,2013-03-07 15:32:00,
2013-03-07 07:53:00,40.0,31.0,-100.00,SSE,163,4.0,9.0,71,0.00,,,0.00,34.000000,,2013-03-07 15:53:00,
2013-03-07 08:01:00,40.0,31.0,-100.00,SSE,163,4.0,9.0,71,0.00,,,0.00,34.000000,,2013-03-07 16:01:00,
2013-03-07 08:12:00,40.0,31.0,-100.00,SSE,163,4.0,9.0,71,0.00,,,0.00,34.000000,,2013-03-07 16:12:00,
2013-03-07 08:22:00,40.0,31.0,-100.00,SSE,163,4.0,9.0,71,0.00,,,0.00,34.000000,,2013-03-07 16:22:00,
2013-03-07 08:53:00,43.0,33.0,-100.00,South,172,13.0,20.0,67,0.00,,,0.00,175.000000,,2013-03-07 16:53:00,
2013-03-07 09:02:00,43.0,33.0,-100.00,South,172,13.0,20.0,67,0.00,,,0.00,175.000000,,2013-03-07 17:02:00,
2013-03-07 09:11:00,43.0,33.0,-100.00,South,172,13.0,20.0,67,0.00,,,0.00,175.000000,,2013-03-07 17:11:00,
2013-03-07 09:22:00,43.0,33.0,-100.00,South,172,13.0,20.0,67,0.00,,,0.00,175.000000,,2013-03-07 17:22:00,
2013-03-07 09:31:00,43.0,33.0,-100.00,South,172,13.0,20.0,67,0.00,,,0.00,175.000000,,2013-03-07 17:31:00,
2013-03-07 09:54:00,48.0,36.0,-100.00,South,180,6.0,20.0,62,0.00,,,0.00,360.000000,,2013-03-07 17:54:00,
2013-03-07 10:03:00,48.0,36.0,-100.00,South,180,6.0,20.0,62,0.00,,,0.00,360.000000,,2013-03-07 18:03:00,
2013-03-07 10:11:00,48.0,36.0,-100.00,South,180,6.0,20.0,62,0.00,,,0.00,360.000000,,2013-03-07 18:11:00,
2013-03-07 10:21:00,48.0,36.0,-100.00,South,180,6.0,20.0,62,0.00,,,0.00,360.000000,,2013-03-07 18:21:00,
2013-03-07 10:31:00,48.0,36.0,-100.00,South,180,6.0,20.0,62,0.00,,,0.00,360.000000,,2013-03-07 18:31:00,
2013-03-07 10:32:00,50.0,36.0,-100.00,SSW,192,8.0,17.0,58,0.00,,,0.00,568.000000,,2013-03-07 18:32:00,
2013-03-07 10:52:00,50.0,36.0,-100.00,SSW,192,8.0,17.0,58,0.00,,,0.00,568.000000,,2013-03-07 18:52:00,
2013-03-07 11:02:00,50.0,36.0,-100.00,SSW,192,8.0,17.0,58,0.00,,,0.00,568.000000,,2013-03-07 19:02:00,
2013-03-07 11:11:00,50.0,36.0,-100.00,SSW,192,8.0,17.0,58,0.00,,,0.00,568.000000,,2013-03-07 19:11:00,
2013-03-07 11:22:00,50.0,36.0,-100.00,SSW,192,8.0,17.0,58,0.00,,,0.00,568.000000,,2013-03-07 19:22:00,
2013-03-07 11:53:00,50.0,35.0,-100.00,South,182,10.0,18.0,57,0.00,,,0.00,619.000000,,2013-03-07 19:53:00,
2013-03-07 12:01:00,50.0,35.0,-100.00,South,182,10.0,18.0,57,0.00,,,0.00,619.000000,,2013-03-07 20:01:00,
2013-03-07 12:12:00,50.0,35.0,-100.00,South,182,10.0,18.0,57,0.00,,,0.00,619.000000,,2013-03-07 20:12:00,
2013-03-07 12:21:00,50.0,35.0,-100.00,South,182,10.0,18.0,57,0.00,,,0.00,619.000000,,2013-03-07 20:21:00,
2013-03-07 12:31:00,50.0,35.0,-100.00,South,182,10.0,18.0,57,0.00,,,0.00,619.000000,,2013-03-07 20:31:00,
2013-03-07 12:54:00,52.0,34.0,-100.00,South,188,7.0,19.0,51,0.00,,,0.00,609.000000,,2013-03-07 20:54:00,
2013-03-07 13:02:00,52.0,34.0,-100.00,South,188,7.0,19.0,51,0.00,,,0.00,609.000000,,2013-03-07 21:02:00,
2013-03-07 13:11:00,52.0,34.0,-100.00,South,188,7.0,19.0,51,0.00,,,0.00,609.000000,,2013-03-07 21:11:00,
2013-03-07 13:22:00,52.0,34.0,-100.00,South,188,7.0,19.0,51,0.00,,,0.00,609.000000,,2013-03-07 21:22:00,
2013-03-07 13:31:00,52.0,34.0,-100.00,South,188,7.0,19.0,51,0.00,,,0.00,609.000000,,2013-03-07 21:31:00,
2013-03-07 13:52:00,52.0,33.0,-100.00,South,178,8.0,19.0,48,0.00,,,0.00,654.000000,,2013-03-07 21:52:00,
2013-03-07 14:01:00,52.0,33.0,-100.00,South,178,8.0,19.0,48,0.00,,,0.00,654.000000,,2013-03-07 22:01:00,
2013-03-07 14:11:00,52.0,33.0,-100.00,South,178,8.0,19.0,48,0.00,,,0.00,654.000000,,2013-03-07 22:11:00,
2013-03-07 14:22:00,52.0,33.0,-100.00,South,178,8.0,19.0,48,0.00,,,0.00,654.000000,,2013-03-07 22:22:00,
2013-03-07 14:31:00,52.0,33.0,-100.00,South,178,8.0,19.0,48,0.00,,,0.00,654.000000,,2013-03-07 22:31:00,
2013-03-07 14:32:00,54.0,36.0,-100.00,SSW,193,7.0,12.0,50,0.00,,,0.00,494.000000,,2013-03-07 22:32:00,
2013-03-07 14:54:00,54.0,36.0,-100.00,SSW,193,7.0,12.0,50,0.00,,,0.00,494.000000,,2013-03-07 22:54:00,
2013-03-07 15:02:00,54.0,36.0,-100.00,SSW,193,7.0,12.0,50,0.00,,,0.00,494.000000,,2013-03-07 23:02:00,
2013-03-07 15:12:00,54.0,36.0,-100.00,SSW,193,7.0,12.0,50,0.00,,,0.00,494.000000,,2013-03-07 23:12:00,
2013-03-07 15:21:00,54.0,36.0,-100.00,SSW,193,7.0,12.0,50,0.00,,,0.00,494.000000,,2013-03-07 23:21:00,
2013-03-07 15:32:00,51.0,35.0,-100.00,SSW,199,8.0,15.0,54,0.00,,,0.00,317.000000,,2013-03-07 23:32:00,
2013-03-07 15:53:00,51.0,35.0,-100.00,SSW,199,8.0,15.0,54,0.00,,,0.00,317.000000,,2013-03-07 23:53:00,
2013-03-07 16:12:00,51.0,35.0,-100.00,SSW,199,8.0,15.0,54,0.00,,,0.00,317.000000,,2013-03-08 00:12:00,
2013-03-07 16:22:00,51.0,35.0,-100.00,SSW,199,8.0,15.0,54,0.00,,,0.00,317.000000,,2013-03-08 00:22:00,
2013-03-07 16:32:00,46.0,38.0,-100.00,South,190,9.0,13.0,73,0.01,,,0.01,138.000000,,2013-03-08 00:32:00,
2013-03-07 16:53:00,46.0,38.0,-100.00,South,190,9.0,13.0,73,0.01,,,0.01,138.000000,,2013-03-08 00:53:00,
2013-03-07 17:01:00,46.0,38.0,-100.00,South,190,9.0,13.0,73,0.01,,,0.01,138.000000,,2013-03-08 01:01:00,
2013-03-07 17:11:00,46.0,38.0,-100.00,South,190,9.0,13.0,73,0.01,,,0.01,138.000000,,2013-03-08 01:11:00,
2013-03-07 17:21:00,46.0,38.0,-100.00,South,190,9.0,13.0,73,0.01,,,0.01,138.000000,,2013-03-08 01:21:00,
2013-03-07 17:52:00,42.0,41.0,-100.00,South,175,9.0,14.0,95,0.01,,,0.02,25.000000,,2013-03-08 01:52:00,
2013-03-07 18:01:00,42.0,41.0,-100.00,South,175,9.0,14.0,95,0.01,,,0.02,25.000000,,2013-03-08 02:01:00,
2013-03-07 18:11:00,42.0,41.0,-100.00,South,175,9.0,14.0,95,0.01,,,0.02,25.000000,,2013-03-08 02:11:00,
2013-03-07 18:21:00,42.0,41.0,-100.00,South,175,9.0,14.0,95,0.01,,,0.02,25.000000,,2013-03-08 02:21:00,
2013-03-07 18:31:00,42.0,41.0,-100.00,South,175,9.0,14.0,95,0.01,,,0.02,25.000000,,2013-03-08 02:31:00,
2013-03-07 18:53:00,41.0,39.0,-100.00,SSE,166,5.0,18.0,93,0.06,,,0.08,9.000000,,2013-03-08 02:53:00,
2013-03-07 19:02:00,41.0,39.0,-100.00,SSE,166,5.0,18.0,93,0.06,,,0.08,9.000000,,2013-03-08 03:02:00,
2013-03-07 19:11:00,41.0,39.0,-100.00,SSE,166,5.0,18.0,93,0.06,,,0.08,9.000000,,2013-03-08 03:11:00,
2013-03-07 19:22:00,41.0,39.0,-100.00,SSE,166,5.0,18.0,93,0.06,,,0.08,9.000000,,2013-03-08 03:22:00,
2013-03-07 19:31:00,41.0,39.0,-100.00,SSE,166,5.0,18.0,93,0.06,,,0.08,9.000000,,2013-03-08 03:31:00,
2013-03-07 19:52:00,40.0,39.0,-100.00,SSE,155,5.0,7.0,98,0.04,,,0.12,6.000000,,2013-03-08 03:52:00,
2013-03-07 20:01:00,40.0,39.0,-100.00,SSE,155,5.0,7.0,98,0.04,,,0.12,6.000000,,2013-03-08 04:01:00,
2013-03-07 20:11:00,40.0,39.0,-100.00,SSE,155,5.0,7.0,98,0.04,,,0.12,6.000000,,2013-03-08 04:11:00,
2013-03-07 20:21:00,40.0,39.0,-100.00,SSE,155,5.0,7.0,98,0.04,,,0.12,6.000000,,2013-03-08 04:21:00,
2013-03-07 20:31:00,40.0,39.0,-100.00,SSE,155,5.0,7.0,98,0.04,,,0.12,6.000000,,2013-03-08 04:31:00,
2013-03-07 20:52:00,40.0,40.0,-100.00,SSW,203,1.0,6.0,99,0.07,,,0.19,7.000000,,2013-03-08 04:52:00,
2013-03-07 21:01:00,40.0,40.0,-100.00,SSW,203,1.0,6.0,99,0.07,,,0.19,7.000000,,2013-03-08 05:01:00,
2013-03-07 21:12:00,40.0,40.0,-100.00,SSW,203,1.0,6.0,99,0.07,,,0.19,7.000000,,2013-03-08 05:12:00,
2013-03-07 21:22:00,40.0,40.0,-100.00,SSW,203,1.0,6.0,99,0.07,,,0.19,7.000000,,2013-03-08 05:22:00,
2013-03-07 21:31:00,40.0,40.0,-100.00,SSW,203,1.0,6.0,99,0.07,,,0.19,7.000000,,2013-03-08 05:31:00,
2013-03-07 21:52:00,40.0,40.0,-100.00,North,357,0.0,2.0,100,0.06,,,0.25,6.000000,,2013-03-08 05:52:00,
2013-03-07 22:01:00,40.0,40.0,-100.00,North,357,0.0,2.0,100,0.06,,,0.25,6.000000,,2013-03-08 06:01:00,
2013-03-07 22:11:00,40.0,40.0,-100.00,North,357,0.0,2.0,100,0.06,,,0.25,6.000000,,2013-03-08 06:11:00,
2013-03-07 22:21:00,40.0,40.0,-100.00,North,357,0.0,2.0,100,0.06,,,0.25,6.000000,,2013-03-08 06:21:00,
2013-03-07 22:31:00,40.0,40.0,-100.00,North,357,0.0,2.0,100,0.06,,,0.25,6.000000,,2013-03-08 06:31:00,
2013-03-07 22:52:00,41.0,41.0,-100.00,North,4,4.0,6.0,100,0.03,,,0.28,5.000000,,2013-03-08 06:52:00,
2013-03-07 23:01:00,41.0,41.0,-100.00,North,4,4.0,6.0,100,0.03,,,0.28,5.000000,,2013-03-08 07:01:00,
2013-03-07 23:11:00,41.0,41.0,-100.00,North,4,4.0,6.0,100,0.03,,,0.28,5.000000,,2013-03-08 07:11:00,
2013-03-07 23:21:00,41.0,41.0,-100.00,North,4,4.0,6.0,100,0.03,,,0.28,5.000000,,2013-03-08 07:21:00,
2013-03-07 23:31:00,41.0,41.0,-100.00,North,4,4.0,6.0,100,0.03,,,0.28,5.000000,,2013-03-08 07:31:00,
2013-03-07 23:52:00,41.0,41.0,-100.00,North,360,5.0,9.0,100,0.06,,,0.34,4.000000,,2013-03-08 07:52:00,